Time,TemperatureF,DewpointF,PressureIn,WindDirection,WindDirectionDegrees,WindSpeedMPH,WindSpeedGustMPH,Humidity,HourlyPrecipIn,Conditions,Clouds,dailyrainin,SolarRadiationWatts/m^2,SoftwareType,DateUTC
2013-03-19 00:22:00,26.0,12.0,-100.00,NNW,342,3.0,8.0,55,0.00,,,0.00,0.000000,,2013-03-19 06:22:00,
2013-03-19 00:32:00,26.0,12.0,-100.00,NNW,342,3.0,8.0,55,0.00,,,0.00,0.000000,,2013-03-19 06:32:00,
2013-03-19 00:42:00,26.0,12.0,-100.00,NNW,342,3.0,8.0,55,0.00,,,0.00,0.000000,,2013-03-19 06:42:00,
2013-03-19 00:52:00,26.0,12.0,-100.00,NNW,342,3.0,8.0,55,0.00,,,0.00,0.000000,,2013-03-19 06:52:00,
2013-03-19 01:21:00,23.0,13.0,-100.00,North,349,2.0,6.0,65,0.00,,,0.00,0.000000,,2013-03-19 07:21:00,
2013-03-19 01:32:00,23.0,13.0,-100.00,North,349,2.0,6.0,65,0.00,,,0.00,0.000000,,2013-03-19 07:32:00,
2013-03-19 01:42:00,23.0,13.0,-100.00,North,349,2.0,6.0,65,0.00,,,0.00,0.000000,,2013-03-19 07:42:00,
2013-03-19 01:52:00,23.0,13.0,-100.00,North,349,2.0,6.0,65,0.00,,,0.00,0.000000,,2013-03-19 07:52:00,
2013-03-19 02:22:00,26.0,12.0,-100.00,NNW,335,3.0,9.0,56,0.00,,,0.00,0.000000,,2013-03-19 08:22:00,
2013-03-19 02:32:00,26.0,12.0,-100.00,NNW,335,3.0,9.0,56,0.00,,,0.00,0.000000,,2013-03-19 08:32:00,
2013-03-19 02:42:00,26.0,12.0,-100.00,NNW,335,3.0,9.0,56,0.00,,,0.00,0.000000,,2013-03-19 08:42:00,
2013-03-19 02:52:00,26.0,12.0,-100.00,NNW,335,3.0,9.0,56,0.00,,,0.00,0.000000,,2013-03-19 08:52:00,
2013-03-19 03:22:00,26.0,13.0,-100.00,NNW,335,3.0,9.0,58,0.00,,,0.00,0.000000,,2013-03-19 09:22:00,
2013-03-19 03:32:00,26.0,13.0,-100.00,NNW,335,3.0,9.0,58,0.00,,,0.00,0.000000,,2013-03-19 09:32:00,
2013-03-19 03:43:00,26.0,13.0,-100.00,NNW,335,3.0,9.0,58,0.00,,,0.00,0.000000,,2013-03-19 09:43:00,
2013-03-19 03:52:00,26.0,13.0,-100.00,NNW,335,3.0,9.0,58,0.00,,,0.00,0.000000,,2013-03-19 09:52:00,
2013-03-19 04:23:00,24.0,13.0,-100.00,NNW,330,4.0,9.0,63,0.00,,,0.00,0.000000,,2013-03-19 10:23:00,
2013-03-19 04:32:00,24.0,13.0,-100.00,NNW,330,4.0,9.0,63,0.00,,,0.00,0.000000,,2013-03-19 10:32:00,
2013-03-19 04:42:00,24.0,13.0,-100.00,NNW,330,4.0,9.0,63,0.00,,,0.00,0.000000,,2013-03-19 10:42:00,
2013-03-19 04:52:00,24.0,13.0,-100.00,NNW,330,4.0,9.0,63,0.00,,,0.00,0.000000,,2013-03-19 10:52:00,
2013-03-19 05:22:00,24.0,13.0,-100.00,NNW,344,4.0,13.0,63,0.00,,,0.00,0.000000,,2013-03-19 11:22:00,
2013-03-19 05:32:00,24.0,13.0,-100.00,NNW,344,4.0,13.0,63,0.00,,,0.00,0.000000,,2013-03-19 11:32:00,
2013-03-19 05:43:00,24.0,13.0,-100.00,NNW,344,4.0,13.0,63,0.00,,,0.00,0.000000,,2013-03-19 11:43:00,
2013-03-19 05:52:00,24.0,13.0,-100.00,NNW,344,4.0,13.0,63,0.00,,,0.00,0.000000,,2013-03-19 11:52:00,
2013-03-19 06:22:00,22.0,13.0,-100.00,NNW,337,3.0,8.0,68,0.00,,,0.00,0.000000,,2013-03-19 12:22:00,
2013-03-19 06:33:00,22.0,13.0,-100.00,NNW,337,3.0,8.0,68,0.00,,,0.00,0.000000,,2013-03-19 12:33:00,
2013-03-19 06:42:00,22.0,13.0,-100.00,NNW,337,3.0,8.0,68,0.00,,,0.00,0.000000,,2013-03-19 12:42:00,
2013-03-19 06:52:00,22.0,13.0,-100.00,NNW,337,3.0,8.0,68,0.00,,,0.00,0.000000,,2013-03-19 12:52:00,
2013-03-19 07:22:00,23.0,14.0,-100.00,NNW,344,3.0,10.0,68,0.00,,,0.00,1.000000,,2013-03-19 13:22:00,
2013-03-19 07:32:00,23.0,14.0,-100.00,NNW,344,3.0,10.0,68,0.00,,,0.00,1.000000,,2013-03-19 13:32:00,
2013-03-19 07:42:00,23.0,14.0,-100.00,NNW,344,3.0,10.0,68,0.00,,,0.00,1.000000,,2013-03-19 13:42:00,
2013-03-19 07:52:00,23.0,14.0,-100.00,NNW,344,3.0,10.0,68,0.00,,,0.00,1.000000,,2013-03-19 13:52:00,
2013-03-19 08:22:00,25.0,15.0,-100.00,North,349,5.0,13.0,66,0.00,,,0.00,22.000000,,2013-03-19 14:22:00,
2013-03-19 08:32:00,25.0,15.0,-100.00,North,349,5.0,13.0,66,0.00,,,0.00,22.000000,,2013-03-19 14:32:00,
2013-03-19 08:42:00,25.0,15.0,-100.00,North,349,5.0,13.0,66,0.00,,,0.00,22.000000,,2013-03-19 14:42:00,
2013-03-19 08:52:00,25.0,15.0,-100.00,North,349,5.0,13.0,66,0.00,,,0.00,22.000000,,2013-03-19 14:52:00,
2013-03-19 09:22:00,28.0,14.0,-100.00,NNW,340,6.0,16.0,56,0.00,,,0.00,190.000000,,2013-03-19 15:22:00,
2013-03-19 09:34:00,28.0,14.0,-100.00,NNW,340,6.0,16.0,56,0.00,,,0.00,190.000000,,2013-03-19 15:34:00,
2013-03-19 09:43:00,28.0,14.0,-100.00,NNW,340,6.0,16.0,56,0.00,,,0.00,190.000000,,2013-03-19 15:43:00,
2013-03-19 09:53:00,28.0,14.0,-100.00,NNW,340,6.0,16.0,56,0.00,,,0.00,190.000000,,2013-03-19 15:53:00,
2013-03-19 10:24:00,30.0,13.0,-100.00,NW,325,9.0,20.0,48,0.00,,,0.00,478.000000,,2013-03-19 16:24:00,
2013-03-19 10:34:00,30.0,13.0,-100.00,NW,325,9.0,20.0,48,0.00,,,0.00,478.000000,,2013-03-19 16:34:00,
2013-03-19 10:44:00,30.0,13.0,-100.00,NW,325,9.0,20.0,48,0.00,,,0.00,478.000000,,2013-03-19 16:44:00,
2013-03-19 10:53:00,30.0,13.0,-100.00,NW,325,9.0,20.0,48,0.00,,,0.00,478.000000,,2013-03-19 16:53:00,
2013-03-19 11:23:00,31.0,15.0,-100.00,North,356,8.0,19.0,51,0.00,,,0.00,581.000000,,2013-03-19 17:23:00,
2013-03-19 11:34:00,31.0,15.0,-100.00,North,356,8.0,19.0,51,0.00,,,0.00,581.000000,,2013-03-19 17:34:00,
2013-03-19 11:44:00,31.0,15.0,-100.00,North,356,8.0,19.0,51,0.00,,,0.00,581.000000,,2013-03-19 17:44:00,
2013-03-19 11:52:00,31.0,15.0,-100.00,North,356,8.0,19.0,51,0.00,,,0.00,581.000000,,2013-03-19 17:52:00,
2013-03-19 12:23:00,32.0,13.0,-100.00,North,353,8.0,18.0,45,0.00,,,0.00,679.000000,,2013-03-19 18:23:00,
2013-03-19 12:33:00,32.0,13.0,-100.00,North,353,8.0,18.0,45,0.00,,,0.00,679.000000,,2013-03-19 18:33:00,
2013-03-19 12:43:00,32.0,13.0,-100.00,North,353,8.0,18.0,45,0.00,,,0.00,679.000000,,2013-03-19 18:43:00,
2013-03-19 12:53:00,32.0,13.0,-100.00,North,353,8.0,18.0,45,0.00,,,0.00,679.000000,,2013-03-19 18:53:00,
2013-03-19 13:22:00,32.0,15.0,-100.00,North,353,9.0,21.0,49,0.00,,,0.00,647.000000,,2013-03-19 19:22:00,
2013-03-19 13:33:00,32.0,15.0,-100.00,North,353,9.0,21.0,49,0.00,,,0.00,647.000000,,2013-03-19 19:33:00,
2013-03-19 13:42:00,32.0,15.0,-100.00,North,353,9.0,21.0,49,0.00,,,0.00,647.000000,,2013-03-19 19:42:00,
2013-03-19 13:52:00,32.0,15.0,-100.00,North,353,9.0,21.0,49,0.00,,,0.00,647.000000,,2013-03-19 19:52:00,
2013-03-19 14:22:00,29.0,12.0,-100.00,North,351,11.0,19.0,48,0.00,,,0.00,662.000000,,2013-03-19 20:22:00,
2013-03-19 14:32:00,29.0,12.0,-100.00,North,351,11.0,19.0,48,0.00,,,0.00,662.000000,,2013-03-19 20:32:00,
2013-03-19 14:43:00,29.0,12.0,-100.00,North,351,11.0,19.0,48,0.00,,,0.00,662.000000,,2013-03-19 20:43:00,
2013-03-19 14:52:00,29.0,12.0,-100.00,North,351,11.0,19.0,48,0.00,,,0.00,662.000000,,2013-03-19 20:52:00,
2013-03-19 15:23:00,29.0,8.0,-100.00,NNW,337,9.0,20.0,41,0.00,,,0.00,441.000000,,2013-03-19 21:23:00,
2013-03-19 15:34:00,29.0,8.0,-100.00,NNW,337,9.0,20.0,41,0.00,,,0.00,441.000000,,2013-03-19 21:34:00,
2013-03-19 15:43:00,29.0,8.0,-100.00,NNW,337,9.0,20.0,41,0.00,,,0.00,441.000000,,2013-03-19 21:43:00,
2013-03-19 15:52:00,29.0,8.0,-100.00,NNW,337,9.0,20.0,41,0.00,,,0.00,441.000000,,2013-03-19 21:52:00,
2013-03-19 16:23:00,29.0,9.0,-100.00,NNW,339,10.0,20.0,42,0.00,,,0.00,306.000000,,2013-03-19 22:23:00,
2013-03-19 16:33:00,29.0,9.0,-100.00,NNW,339,10.0,20.0,42,0.00,,,0.00,306.000000,,2013-03-19 22:33:00,
2013-03-19 16:43:00,29.0,9.0,-100.00,NNW,339,10.0,20.0,42,0.00,,,0.00,306.000000,,2013-03-19 22:43:00,
2013-03-19 16:53:00,29.0,9.0,-100.00,NNW,339,10.0,20.0,42,0.00,,,0.00,306.000000,,2013-03-19 22:53:00,
2013-03-19 17:22:00,27.0,8.0,-100.00,North,353,9.0,21.0,44,0.00,,,0.00,300.000000,,2013-03-19 23:22:00,
2013-03-19 17:32:00,27.0,8.0,-100.00,North,353,9.0,21.0,44,0.00,,,0.00,300.000000,,2013-03-19 23:32:00,
2013-03-19 17:42:00,27.0,8.0,-100.00,North,353,9.0,21.0,44,0.00,,,0.00,300.000000,,2013-03-19 23:42:00,
2013-03-19 17:52:00,27.0,8.0,-100.00,North,353,9.0,21.0,44,0.00,,,0.00,300.000000,,2013-03-19 23:52:00,
2013-03-19 18:22:00,26.0,4.0,-100.00,NNW,345,10.0,18.0,39,0.00,,,0.00,294.000000,,2013-03-20 00:22:00,
2013-03-19 18:33:00,26.0,4.0,-100.00,NNW,345,10.0,18.0,39,0.00,,,0.00,294.000000,,2013-03-20 00:33:00,
2013-03-19 18:42:00,26.0,4.0,-100.00,NNW,345,10.0,18.0,39,0.00,,,0.00,294.000000,,2013-03-20 00:42:00,
2013-03-19 18:52:00,26.0,4.0,-100.00,NNW,345,10.0,18.0,39,0.00,,,0.00,294.000000,,2013-03-20 00:52:00,
2013-03-19 19:22:00,24.0,3.0,-100.00,NNW,341,5.0,14.0,39,0.00,,,0.00,19.000000,,2013-03-20 01:22:00,
2013-03-19 19:32:00,24.0,3.0,-100.00,NNW,341,5.0,14.0,39,0.00,,,0.00,19.000000,,2013-03-20 01:32:00,
2013-03-19 19:42:00,24.0,3.0,-100.00,NNW,341,5.0,14.0,39,0.00,,,0.00,19.000000,,2013-03-20 01:42:00,
2013-03-19 19:52:00,24.0,3.0,-100.00,NNW,341,5.0,14.0,39,0.00,,,0.00,19.000000,,2013-03-20 01:52:00,
2013-03-19 20:22:00,21.0,4.0,-100.00,NNW,346,2.0,13.0,46,0.00,,,0.00,2.000000,,2013-03-20 02:22:00,
2013-03-19 20:32:00,21.0,4.0,-100.00,NNW,346,2.0,13.0,46,0.00,,,0.00,2.000000,,2013-03-20 02:32:00,
2013-03-19 20:42:00,21.0,4.0,-100.00,NNW,346,2.0,13.0,46,0.00,,,0.00,2.000000,,2013-03-20 02:42:00,
2013-03-19 20:52:00,21.0,4.0,-100.00,NNW,346,2.0,13.0,46,0.00,,,0.00,2.000000,,2013-03-20 02:52:00,
2013-03-19 21:22:00,16.0,5.0,-100.00,NW,321,0.0,5.0,60,0.00,,,0.00,0.000000,,2013-03-20 03:22:00,
2013-03-19 21:34:00,16.0,5.0,-100.00,NW,321,0.0,5.0,60,0.00,,,0.00,0.000000,,2013-03-20 03:34:00,
2013-03-19 21:42:00,16.0,5.0,-100.00,NW,321,0.0,5.0,60,0.00,,,0.00,0.000000,,2013-03-20 03:42:00,
2013-03-19 21:53:00,16.0,5.0,-100.00,NW,321,0.0,5.0,60,0.00,,,0.00,0.000000,,2013-03-20 03:53:00,
2013-03-19 22:23:00,13.0,5.0,-100.00,WNW,300,0.0,2.0,69,0.00,,,0.00,0.000000,,2013-03-20 04:23:00,
2013-03-19 22:32:00,13.0,5.0,-100.00,WNW,300,0.0,2.0,69,0.00,,,0.00,0.000000,,2013-03-20 04:32:00,
2013-03-19 22:43:00,13.0,5.0,-100.00,WNW,300,0.0,2.0,69,0.00,,,0.00,0.000000,,2013-03-20 04:43:00,
2013-03-19 22:52:00,13.0,5.0,-100.00,WNW,300,0.0,2.0,69,0.00,,,0.00,0.000000,,2013-03-20 04:52:00,
2013-03-19 23:23:00,11.0,4.0,-100.00,WNW,295,2.0,4.0,73,0.00,,,0.00,0.000000,,2013-03-20 05:23:00,
2013-03-19 23:32:00,11.0,4.0,-100.00,WNW,295,2.0,4.0,73,0.00,,,0.00,0.000000,,2013-03-20 05:32:00,
2013-03-19 23:42:00,11.0,4.0,-100.00,WNW,295,2.0,4.0,73,0.00,,,0.00,0.000000,,2013-03-20 05:42:00,
2013-03-19 23:52:00,11.0,4.0,-100.00,WNW,295,2.0,4.0,73,0.00,,,0.00,0.000000,,2013-03-20 05:52:00,